Regional Weather Roundup
Issued by NWS

Home | Current Version | Previous Version | Graphics & Text | Print | Product List | Glossary On
Versions: 1 2 3 4 5 6 7 8 9 10 11 12 13 14 15 16 17 18 19 20 21 22 23 24 25 26 27 28 29 30 31 32 33 34 35 36 37 38 39 40 41 42 43 44 45 46 47 48 49 50
000
ASUS43 KFSD 261802
RWRSD

WEATHER ROUNDUP FOR SOUTH DAKOTA
NATIONAL WEATHER SERVICE SIOUX FALLS SD
100 PM CDT TUE MAY 26 2015

NOTE: "FAIR" INDICATES FEW OR NO CLOUDS BELOW 12,000 FEET WITH NO
SIGNIFICANT WEATHER AND/OR OBSTRUCTIONS TO VISIBILITY.


SDZ001>005-009-010-012>017-261900-
NORTHWEST AND NORTH CENTRAL SOUTH DAKOTA

CITY           SKY/WX    TMP DP  RH WIND       PRES   REMARKS
FAITH            N/A     69  48  47 VRB3      29.96S
MOBRIDGE       SUNNY     75  53  46 NW14      29.89S
$$

SDZ012>016-024>037-041>051-057-063-072>074-261900-
SOUTHWEST AND SOUTH CENTRAL SOUTH DAKOTA

CITY           SKY/WX    TMP DP  RH WIND       PRES   REMARKS
RAPID CTY ARPT MOSUNNY   66  48  52 S12G20    29.99S
PIERRE         SUNNY     72  52  49 NW13      29.91S
CUSTER         CLOUDY    54  47  77 VRB7      30.04S
ELLSWORTH AFB  SUNNY     66  49  54 S13G18    29.98S
PHILIP         MOSUNNY   72  51  47 VRB6      29.96S
PINE RIDGE     CLOUDY    63  45  51 SW6       30.01S
WINNER         MOCLDY    69  50  50 NW13      29.93S
$$

SDZ004>011-016>023-039-040-261900-
NORTHEAST SOUTH DAKOTA

CITY           SKY/WX    TMP DP  RH WIND       PRES   REMARKS
ABERDEEN       PTSUNNY   75  54  47 N12       29.85F
WATERTOWN      CLOUDY    66  51  58 N7        29.86S
BROOKINGS      CLOUDY    63  52  67 N14       29.85S
$$

SDZ017-020-022-023-036>040-048>070-261900-
SOUTHEAST SOUTH DAKOTA

CITY           SKY/WX    TMP DP  RH WIND       PRES   REMARKS
SIOUX FALLS    CLOUDY    61  53  75 N13       29.85R
HURON          PTSUNNY   73  53  49 N12G18    29.85F
CHAMBERLAIN    MOSUNNY   71  51  49 N16G23    29.90F
MITCHELL       PTSUNNY   71  53  52 N13       29.87F
YANKTON        MOSUNNY   64  54  68 N12G22    29.85S
$$

ABBREVIATIONS USED IN REMARKS
   TC - TEMPERATURE IN CELSIUS
  WCI - WIND CHILL INDEX
   HX - HEAT INDEX
  VSB - VISIBILITY



USA.gov is the U.S. government's official web portal to all federal, state and local government web resources and services.